Regional Weather Roundup
Issued by NWS

Home | Current Version | Previous Version | Text Only | Print | Product List | Glossary On
Versions: 1 2 3 4 5 6 7 8 9 10 11 12 13 14 15 16 17 18 19 20 21 22 23 24 25 26 27 28 29 30 31 32 33 34 35 36 37 38 39 40 41 42 43 44 45 46 47 48 49 50
000
ASUS43 KOAX 251802
RWRNE

WEATHER ROUNDUP FOR NEBRASKA
NATIONAL WEATHER SERVICE OMAHA NE
100 PM CDT MON JUL 25 2016

NOTES: SATELLITE DATA IS BEING USED TO AUGMENT CLOUD COVER ABOVE
       12000 FEET.
       "FAIR" INDICATES FEW OR NO CLOUDS BELOW 12,000 FEET WITH NO
       SIGNIFICANT WEATHER AND/OR OBSTRUCTIONS TO VISIBILITY.

  * THESE STATIONS DO NOT REPORT WEATHER SUCH AS RAIN...SNOW OR FOG.

NEZ001>004-019>022-054>056-251900-
NEBRASKA PANHANDLE

CITY           SKY/WX    TMP DP  RH WIND       PRES   REMARKS
SCOTTSBLUFF    SUNNY     85  54  34 S21       30.13F
6HR MIN TEMP:  58; 6HR MAX TEMP:  85;

ALLIANCE       SUNNY     81  57  43 S18G28    30.16F
6HR MIN TEMP:  55; 6HR MAX TEMP:  81;

CHADRON        SUNNY     86  54  33 S16G24    30.09F
6HR MIN TEMP:  61; 6HR MAX TEMP:  87;

KIMBALL        SUNNY     79  58  48 SE17G23   30.21S
SIDNEY         SUNNY     82  58  43 SE21G28   30.19F
6HR MIN TEMP:  55; 6HR MAX TEMP:  82;

$$

NEZ057>060-069>072-079>082-251900-
SOUTHWEST NEBRASKA

CITY           SKY/WX    TMP DP  RH WIND       PRES   REMARKS
NORTH PLATTE   SUNNY     82  66  58 SE12      30.15F
6HR MIN TEMP:  60; 6HR MAX TEMP:  82;

IMPERIAL       SUNNY     82  62  50 SE13      30.17F
6HR MIN TEMP:  60; 6HR MAX TEMP:  82;

LEXINGTON      SUNNY     81  63  54 SE10G17   30.17S
MCCOOK         SUNNY     85  61  44 SE13      30.15F
6HR MIN TEMP:  62; 6HR MAX TEMP:  86;

OGALLALA       SUNNY     83  61  46 SE13G20   30.15F
$$

NEZ005>010-023>029-035>040-094-251900-
NORTH CENTRAL NEBRASKA

CITY           SKY/WX    TMP DP  RH WIND       PRES   REMARKS
VALENTINE      SUNNY     87  46  24 S20G28    30.12F
6HR MIN TEMP:  61; 6HR MAX TEMP:  87;

AINSWORTH      SUNNY     84  51  31 S17G23    30.15F
BROKEN BOW     SUNNY     80  62  54 SE12G23   30.17F
6HR MIN TEMP:  59; 6HR MAX TEMP:  80;

O`NEILL        SUNNY     84  53  34 S14       30.15F
ORD            SUNNY     81  54  39 SE10      30.14F
6HR MIN TEMP:  60; 6HR MAX TEMP:  81;

THEDFORD       SUNNY     83  59  43 SE13G22   30.17F
$$

NEZ041-046>049-061>064-073>077-083>087-251900-
SOUTH CENTRAL NEBRASKA

CITY           SKY/WX    TMP DP  RH WIND       PRES   REMARKS
GRAND ISLAND   SUNNY     81  64  56 SE8       30.15F
6HR MIN TEMP:  64; 6HR MAX TEMP:  82;

AURORA         SUNNY     80  64  56 S7        30.15F
HASTINGS       SUNNY     83  64  52 SE9       30.15F
6HR MIN TEMP:  67; 6HR MAX TEMP:  83;

HEBRON         MOSUNNY   82  59  46 E7        30.13S
HOLDREGE       SUNNY     80  64  59 SE10      30.16F
KEARNEY *      SUNNY     82  63  51 SE10      30.17S
$$

NEZ011>018-030>034-042>045-251900-
NORTHEAST NEBRASKA

CITY           SKY/WX    TMP DP  RH WIND       PRES   REMARKS
NORFOLK        SUNNY     81  62  52 S12       30.14F
6HR MIN TEMP:  60; 6HR MAX TEMP:  81;

ALBION         SUNNY     80  62  53 S8        30.16F
BLAIR          SUNNY     82  65  55 CALM      30.14F
FREMONT        SUNNY     82  64  54 S3        30.14F
TEKAMAH        SUNNY     84  62  47 S7        30.13S
6HR MIN TEMP:  63; 6HR MAX TEMP:  85;

WAYNE          SUNNY     81  67  61 S9        30.15S
$$

NEZ050>053-065>068-078-088>093-251900-
SOUTHEAST NEBRASKA

CITY           SKY/WX    TMP DP  RH WIND       PRES   REMARKS
LINCOLN        SUNNY     84  62  47 MISG      30.13F
6HR MIN TEMP:  67; 6HR MAX TEMP:  84;

OMAHA EPPLEY   MOSUNNY   84  64  50 E5        30.12F
6HR MIN TEMP:  66; 6HR MAX TEMP:  86;

BEATRICE       CLOUDY    84  58  40 E8        30.12F
FALLS CITY     PTSUNNY   82  68  62 NE7       30.09F
6HR MIN TEMP:  68; 6HR MAX TEMP:  82;

NEBRASKA CITY  MOSUNNY   80  63  55 E3        30.13F
PLATTSMOUTH    SUNNY     80  65  60 S5        30.13F
$$

NEZ044-045-051>053-067-251900-
OMAHA AREA

CITY           SKY/WX    TMP DP  RH WIND       PRES   REMARKS
OMAHA EPPLEY   MOSUNNY   84  64  50 E5        30.12F
6HR MIN TEMP:  66; 6HR MAX TEMP:  86;

BLAIR          SUNNY     82  65  55 CALM      30.14F
FREMONT        SUNNY     82  64  54 S3        30.14F
MILLARD        SUNNY     82  65  57 W7        30.12F
OFFUTT AFB     MOSUNNY   83  65  54 VRB1      30.12F
PLATTSMOUTH    SUNNY     80  65  60 S5        30.13F
WAHOO          FAIR      82  62  50 SE6       30.14F
$$



USA.gov is the U.S. government's official web portal to all federal, state and local government web resources and services.